Wind_Speed
37 39 40 41 40 37 34 30 29 29 29 28 26 24 23 23 23 23 21 21 22 23 25 26 25 25 26 26 25 24 23 22 21 21 20 20 19 20 20 21 22 22 22 22 23 24 25 27 29 29 29 29 30 31 30 30 31 32 34 34 35 36 37 38 39 40 41 40 40 42 44 46 46 47 47 45 43 41 40 41 43 43 42 41 40
37 39 41 41 39 37 34 31 30 29 30 29 25 23 23 24 23 22 22 22 23 24 25 25 25 26 26 26 26 25 23 22 21 21 21 20 20 20 20 21 21 22 23 23 24 25 27 28 29 29 29 29 30 30 30 30 32 33 34 35 36 36 37 38 40 40 41 40 41 42 45 46 46 46 45 43 40 39 40 42 43 42 41 40 40
35 37 40 40 38 36 34 31 30 30 30 28 24 22 24 24 23 22 23 23 24 25 25 26 26 26 27 27 26 25 23 22 21 21 21 21 21 21 21 21 22 22 23 24 25 27 28 28 28 28 29 29 30 30 30 31 32 33 34 35 36 37 37 39 40 41 41 41 41 43 45 46 46 45 43 40 39 38 40 41 42 41 40 40 41
34 36 38 39 38 35 33 31 30 30 30 27 24 23 25 25 23 23 23 24 25 25 26 26 27 27 28 27 27 25 23 22 22 21 22 22 21 21 21 22 22 23 24 25 26 27 27 28 28 28 29 30 30 30 31 32 33 34 35 35 36 37 38 40 41 41 41 40 41 43 45 45 45 43 41 39 37 38 39 41 41 41 41 41 41
35 37 39 39 37 34 32 31 30 29 29 27 24 24 26 25 23 23 24 25 26 26 26 27 27 28 28 28 27 25 23 22 22 22 22 22 21 21 22 22 23 24 24 25 26 26 27 27 28 29 29 30 30 31 32 33 34 35 35 35 36 37 38 40 42 41 41 40 41 44 45 45 44 41 39 38 37 38 39 41 41 41 42 42 41
37 38 40 39 36 33 31 30 29 29 29 27 25 26 26 25 23 23 24 26 26 26 26 27 28 29 29 28 27 25 23 23 22 22 22 22 21 22 22 23 23 23 24 24 25 26 28 29 29 29 29 29 31 32 33 34 36 36 35 36 37 37 38 40 42 42 40 40 42 44 44 43 42 39 37 37 37 39 41 42 42 41 41 41 41
39 40 40 36 33 31 30 30 29 30 29 27 27 27 27 26 24 24 25 26 26 26 26 28 29 30 29 29 27 25 24 23 23 23 23 22 22 22 22 22 22 22 23 24 26 28 29 30 30 29 29 30 31 33 34 36 38 38 37 37 38 37 38 40 42 41 40 40 42 43 43 42 40 38 37 36 37 38 40 42 42 41 41 40 40
40 41 37 32 30 29 29 30 30 29 29 28 28 28 28 26 25 24 25 26 26 27 27 28 29 30 30 29 27 26 24 24 24 23 23 23 23 22 21 21 22 23 24 25 27 29 30 31 31 31 30 30 31 33 36 38 39 39 38 38 38 37 38 40 41 40 39 40 42 42 42 41 39 37 37 37 37 38 39 40 41 41 41 41 41
40 38 32 29 28 28 29 30 29 29 29 28 28 28 28 27 26 26 26 27 27 27 28 28 29 29 30 29 28 26 25 25 24 24 24 23 23 23 22 23 24 25 26 27 28 30 31 32 31 31 30 30 32 35 37 38 39 40 39 39 38 37 37 40 41 39 39 41 41 42 42 40 38 37 37 37 38 38 39 40 40 40 41 41 42
36 32 29 28 28 28 30 30 29 29 29 29 29 29 29 28 27 27 27 28 28 28 28 28 29 30 30 30 28 27 26 25 25 25 25 24 23 24 24 25 26 26 27 28 29 30 31 32 31 30 30 31 35 37 38 39 40 40 40 40 37 35 37 39 39 38 39 40 41 42 41 39 38 37 37 37 38 38 39 39 40 40 40 41 42
32 29 28 28 29 29 29 29 29 29 30 30 30 30 30 30 29 28 28 29 29 29 28 28 29 31 31 29 28 27 26 26 25 25 25 24 24 24 25 26 27 28 28 30 30 30 31 31 31 31 32 34 37 39 39 40 40 39 38 36 34 34 37 38 38 38 39 40 41 42 40 39 38 37 37 37 37 38 39 39 40 40 40 40 42
30 29 29 29 30 29 28 28 29 30 31 31 31 31 31 31 30 29 29 30 30 30 28 29 31 32 31 29 28 28 27 25 25 25 25 24 24 25 26 28 28 28 29 31 31 30 30 31 32 33 34 37 39 40 40 41 40 37 32 31 32 34 36 37 37 38 39 40 41 41 39 38 38 37 37 37 37 38 38 39 40 40 40 41 42
32 31 30 31 31 30 28 28 28 30 32 32 32 32 32 32 31 31 31 31 31 29 29 30 32 33 31 29 29 28 27 25 25 25 24 24 25 26 27 28 29 29 30 31 31 31 30 31 32 34 36 39 41 41 41 41 40 34 30 31 34 35 36 36 37 37 39 41 41 40 39 38 38 38 37 37 37 38 38 39 40 40 41 41 42
34 33 33 32 32 31 29 27 28 30 32 34 34 33 33 33 32 32 33 33 31 30 30 31 32 32 31 29 29 29 28 27 26 24 24 25 26 28 28 29 29 29 30 31 31 31 31 32 33 36 38 40 42 42 41 41 37 32 31 34 36 36 36 36 36 38 39 41 41 39 38 38 38 38 38 38 38 38 38 39 40 41 42 42 42
37 36 36 34 33 31 29 28 29 31 33 35 35 34 34 34 33 34 35 34 32 31 31 32 32 32 31 30 29 28 28 28 27 24 24 26 27 28 29 29 29 30 31 31 30 31 32 33 35 38 40 41 42 42 42 39 34 31 33 37 37 36 36 36 37 38 40 40 40 39 38 38 38 38 39 39 39 39 39 39 40 41 42 42 43
39 38 38 37 34 32 30 29 30 31 34 36 36 35 35 34 34 36 36 35 34 32 32 33 32 32 32 31 30 29 28 28 26 24 24 26 28 29 30 30 29 29 30 30 30 31 33 35 37 39 41 41 42 42 40 37 33 32 35 37 36 36 36 36 37 38 39 40 39 38 38 38 39 39 40 40 40 40 40 40 40 41 41 41 42
38 40 40 39 37 34 32 32 32 33 35 37 37 36 36 36 36 38 38 36 35 34 34 34 34 35 34 33 31 29 28 26 24 23 25 27 29 30 30 29 28 28 28 29 31 33 35 37 39 40 41 42 42 40 38 35 33 33 35 35 35 35 35 36 37 38 39 39 38 38 38 39 40 40 41 41 41 41 40 40 40 40 39 40 41
39 41 40 40 39 37 35 35 34 34 36 38 38 38 38 38 39 40 39 37 36 36 35 35 36 38 38 36 33 30 27 25 24 23 25 28 30 31 29 28 27 28 29 31 33 34 36 38 40 41 42 41 40 38 35 33 33 34 34 34 34 34 34 35 36 38 39 39 39 38 39 40 40 41 41 41 41 41 40 39 39 39 39 40 40
41 41 41 42 42 40 39 38 37 36 37 38 39 40 40 41 42 42 40 38 36 36 36 37 38 39 39 38 36 32 28 25 23 22 24 27 29 29 28 28 28 30 31 33 35 36 38 40 41 41 41 40 37 35 33 33 34 34 34 33 33 33 33 35 36 38 39 39 39 39 39 40 41 41 42 42 41 40 40 38 38 38 40 40 40
41 41 41 44 45 43 42 41 39 38 38 39 41 42 43 44 44 43 40 37 36 35 35 37 39 39 40 40 37 33 29 25 21 21 23 25 26 26 27 28 30 31 33 35 37 38 39 40 41 40 39 38 35 34 33 33 34 34 33 32 31 32 33 35 36 38 39 39 39 40 40 40 41 41 42 41 40 40 39 38 38 39 40 40 39
44 43 42 44 47 46 45 44 42 39 39 41 42 43 44 45 44 42 39 37 36 35 35 37 40 41 41 40 38 34 30 24 22 22 24 25 24 25 26 29 31 33 35 37 38 39 40 40 40 39 37 35 34 34 33 33 32 32 31 30 31 32 33 34 36 38 39 39 40 40 41 41 41 41 41 41 40 39 39 40 39 39 39 38 37
46 44 43 44 46 47 47 46 44 41 41 42 43 43 44 45 43 42 40 37 35 35 35 37 40 42 41 39 38 36 31 23 21 23 23 23 23 25 27 30 33 34 36 37 38 39 39 39 39 37 35 34 33 33 33 32 31 31 31 30 31 32 32 34 36 37 38 39 40 41 41 42 42 41 40 40 40 40 40 39 38 38 37 37 37
48 46 45 45 46 46 47 47 44 43 42 41 42 43 45 44 43 42 41 38 35 34 34 37 40 41 40 39 38 37 32 24 20 21 22 23 24 27 29 32 34 35 36 37 38 38 38 38 36 35 34 33 33 32 32 32 31 31 30 30 31 32 33 34 36 37 38 39 40 41 42 42 42 41 40 40 40 40 39 37 37 37 37 37 37
50 49 47 47 46 45 46 47 46 44 42 41 42 44 44 44 43 43 41 38 36 34 34 37 39 40 40 39 38 37 33 25 22 22 23 24 26 29 31 33 34 35 36 37 37 37 36 35 34 33 33 33 32 32 33 33 32 31 31 31 32 33 33 34 36 37 38 39 41 41 42 42 42 42 41 41 40 39 36 35 36 37 38 37 37
50 49 45 44 44 43 45 47 46 44 41 41 43 44 43 43 43 43 41 39 36 34 34 35 36 36 36 35 35 34 31 25 23 24 24 25 27 30 31 33 34 36 36 36 36 35 33 32 32 32 33 32 32 32 33 33 33 32 32 32 33 34 34 35 36 37 38 40 41 41 42 43 43 42 42 42 40 37 35 35 36 37 37 37 36
49 48 43 38 36 39 42 43 44 44 43 42 42 42 42 43 43 41 40 39 36 34 33 33 33 32 32 30 29 29 27 25 24 25 25 27 28 29 31 33 35 36 36 35 35 33 31 31 32 32 32 32 32 32 33 33 32 32 32 33 33 34 35 36 36 37 39 40 40 41 42 43 43 43 42 41 38 35 34 35 37 38 38 36 35
50 47 43 38 37 38 38 38 39 41 42 41 41 41 42 43 41 39 39 38 36 35 34 33 32 32 31 29 26 24 23 23 24 26 27 28 29 31 33 35 35 35 35 35 33 31 30 31 32 32 32 32 32 32 33 32 32 32 32 32 34 35 35 36 36 37 39 40 40 41 42 43 43 42 41 38 35 32 32 34 37 38 37 35 33
48 44 41 40 40 40 38 36 34 35 38 40 41 42 42 42 40 38 38 37 36 35 34 31 31 32 31 27 24 22 22 23 25 28 29 30 31 33 34 35 36 36 36 34 32 31 30 31 32 33 33 33 33 33 33 32 31 31 31 32 33 34 35 35 36 37 38 39 40 41 43 43 42 41 38 34 32 31 32 34 36 37 35 34 32
43 40 39 40 41 41 41 38 35 34 36 39 42 44 44 41 40 39 37 36 36 35 33 31 30 30 28 25 23 23 24 25 28 30 31 32 34 35 35 35 36 36 36 34 32 31 31 32 33 34 34 34 34 34 33 32 31 30 31 32 33 34 35 35 36 37 38 39 40 42 42 42 40 38 34 31 30 31 32 33 34 35 34 33 33
37 37 37 39 41 42 43 42 40 38 38 40 43 45 44 42 41 40 38 37 36 34 32 32 30 28 26 25 25 26 27 28 30 31 32 34 35 36 36 36 37 37 36 34 32 32 32 33 34 35 36 36 35 35 34 32 31 31 32 32 33 34 34 35 36 37 38 39 41 42 41 39 38 35 31 29 29 30 31 32 33 34 33 32 32
34 35 36 38 40 41 43 43 42 42 42 42 43 45 44 43 41 40 38 38 36 32 30 30 29 28 28 28 28 29 30 31 32 33 34 35 37 37 38 38 38 37 35 34 33 33 34 35 36 36 37 37 37 36 35 33 32 33 33 33 33 33 34 35 36 37 38 40 41 41 40 37 35 32 29 28 28 30 31 32 33 33 33 32 32
34 36 37 38 38 39 40 41 42 44 45 44 43 44 43 41 39 37 36 35 33 30 29 29 29 30 30 30 31 31 32 33 34 35 36 36 38 39 40 39 37 36 34 34 35 35 35 36 36 37 37 38 38 37 34 33 34 34 34 33 33 34 34 34 36 37 39 40 41 40 38 36 34 31 28 27 27 29 31 32 33 34 33 31 31
35 36 37 38 40 41 40 39 41 43 44 44 44 42 40 38 35 34 34 32 30 29 30 31 31 32 32 32 33 33 34 35 36 37 37 37 38 38 38 37 37 37 36 36 37 37 37 37 37 37 38 38 37 36 34 33 33 34 33 34 33 33 34 35 36 38 39 40 40 38 37 36 33 30 28 27 27 28 30 32 33 34 33 31 31
37 38 39 39 42 44 42 41 41 40 40 42 42 40 37 35 34 34 33 31 30 30 31 32 32 33 33 33 34 35 36 37 38 38 38 39 38 37 37 37 37 38 39 39 38 38 38 37 37 38 38 37 36 35 34 33 33 33 34 34 33 32 34 36 37 38 39 40 39 38 37 35 32 29 28 26 26 28 30 31 32 34 33 31 30
39 40 40 40 42 44 44 44 43 40 38 37 37 36 34 33 33 33 33 31 30 31 32 32 33 33 34 35 35 36 38 38 38 39 40 40 39 39 40 40 39 38 38 39 39 38 37 37 38 38 37 36 35 34 33 33 34 34 34 33 32 33 35 37 38 39 39 39 38 37 36 35 32 29 27 26 26 28 29 31 33 34 33 32 30
42 41 41 41 42 44 45 45 43 41 37 34 33 33 33 33 33 33 33 32 32 32 32 32 34 35 36 37 37 38 39 39 39 41 42 41 40 41 43 43 42 40 38 37 35 35 35 37 37 36 35 34 33 32 33 34 34 34 34 33 33 35 38 38 39 40 40 38 37 36 36 34 31 28 27 26 26 28 30 32 33 34 33 32 30
41 41 40 38 37 37 39 42 43 42 39 35 33 32 32 32 32 33 33 32 32 32 33 34 36 37 39 40 40 40 41 42 42 42 42 41 41 43 44 43 41 38 34 32 32 33 35 36 35 35 33 32 31 32 33 34 34 34 34 34 36 38 39 39 40 41 40 38 36 36 36 33 30 28 26 25 27 28 30 32 33 33 33 32 30
36 38 38 37 35 34 36 40 44 43 39 35 32 32 31 31 32 32 33 32 33 34 35 37 39 40 42 43 42 42 43 44 43 41 40 40 41 42 42 40 38 34 31 31 33 35 35 35 34 33 32 31 32 33 33 34 34 35 36 37 38 38 39 40 41 41 39 36 35 36 35 32 30 27 25 25 26 27 29 30 31 32 32 31 29
31 35 36 35 34 34 36 38 39 38 36 34 33 33 32 32 32 32 33 33 35 37 39 41 42 43 43 44 45 45 45 44 42 41 40 40 41 41 41 39 36 34 33 34 35 36 35 35 34 34 33 32 32 33 33 34 35 36 37 38 38 39 39 41 41 39 37 35 35 35 34 32 29 27 25 25 26 27 27 28 29 30 31 31 29
31 35 35 32 32 33 33 33 33 32 33 34 34 33 33 33 33 34 36 37 39 41 42 43 43 44 44 45 46 46 45 43 41 41 41 40 40 41 41 40 38 37 37 36 35 34 34 35 35 34 33 32 33 33 34 35 36 37 37 38 39 39 40 40 39 36 35 34 34 34 32 31 29 27 25 25 26 27 27 28 29 30 30 30 29
34 33 30 29 29 29 28 29 31 33 34 35 35 34 35 35 36 37 39 40 42 43 44 44 45 46 46 45 45 44 43 41 40 40 40 40 40 40 40 40 39 38 37 35 34 34 34 34 33 33 33 33 34 34 35 35 36 36 37 39 40 40 40 38 37 35 34 34 34 32 31 30 28 27 26 27 28 29 29 28 29 30 30 30 28
25 24 23 24 25 25 25 28 31 33 35 35 35 36 36 37 38 39 40 42 43 44 44 44 45 44 43 43 42 41 40 40 39 39 40 40 40 38 38 38 38 37 35 34 34 34 34 33 32 33 34 35 35 35 35 35 36 37 38 40 41 41 38 36 35 35 34 33 32 31 30 29 28 28 28 29 30 31 31 30 29 30 29 29 28
16 17 19 21 22 23 25 28 30 32 33 34 34 35 36 37 39 40 41 42 42 42 42 42 42 42 41 41 40 39 38 38 39 39 40 39 38 36 36 36 35 35 34 34 35 35 34 33 33 34 35 35 35 35 35 35 36 37 38 40 40 38 36 35 35 35 34 33 31 30 30 29 28 28 29 30 31 32 31 30 29 28 28 28 27
16 17 19 21 23 24 26 28 30 32 33 33 34 35 37 38 39 39 39 40 39 39 40 40 41 40 40 39 37 36 37 38 39 39 39 37 36 34 34 33 33 33 35 36 36 35 34 33 33 34 35 35 35 35 35 35 36 37 38 38 36 35 34 35 35 34 33 32 31 30 30 29 29 29 30 31 31 30 29 28 28 27 27 26 26
17 17 20 23 26 27 28 29 30 31 32 33 34 35 36 37 38 38 38 39 39 39 40 40 39 39 38 37 36 36 37 39 39 38 36 35 33 32 32 32 32 33 35 36 36 35 33 33 34 35 36 36 36 36 36 36 36 37 36 35 34 33 34 34 34 34 33 31 31 30 30 30 30 29 30 30 30 29 28 27 26 26 26 25 25
19 19 22 24 27 28 29 30 31 32 33 34 35 36 36 37 37 38 38 39 40 40 40 39 39 38 37 37 37 37 37 38 37 35 34 33 33 33 32 32 32 32 34 34 35 34 34 34 35 36 37 37 37 37 37 37 37 36 35 34 33 33 34 34 33 33 32 31 30 30 30 30 29 29 29 29 29 28 27 26 26 26 26 25 24
22 23 24 25 27 29 30 31 32 33 34 35 36 37 37 38 38 39 39 39 40 40 40 39 38 37 37 37 37 37 37 36 35 34 34 34 34 34 32 32 32 32 33 34 35 35 35 36 36 37 38 38 39 39 39 38 37 35 34 33 33 33 33 33 32 32 31 30 30 30 30 29 28 28 28 28 28 27 26 26 26 25 25 24 23
24 25 26 26 27 28 30 30 31 32 33 34 35 36 36 37 37 38 38 38 38 39 38 37 37 37 37 37 37 36 36 35 34 34 33 33 33 33 33 32 32 33 33 35 36 37 38 38 39 39 40 40 40 40 39 38 36 34 33 32 33 32 32 32 31 30 30 29 29 29 28 27 27 27 27 27 26 26 25 25 25 24 24 23 23
25 26 27 27 28 29 29 30 31 31 32 32 34 34 35 36 36 36 36 36 37 36 36 36 36 36 36 36 36 36 35 34 33 32 32 32 32 33 33 33 34 35 36 37 38 39 39 40 40 41 41 41 41 40 39 36 34 33 32 32 32 31 31 31 30 30 29 28 28 27 26 26 26 26 26 26 25 25 25 25 24 24 24 23 23
24 25 27 28 29 29 30 31 32 32 33 33 34 35 35 35 36 36 36 36 36 36 35 36 36 36 36 35 35 34 33 33 33 33 33 34 35 35 36 36 37 37 38 39 39 39 39 40 40 41 41 40 39 38 37 35 33 32 32 31 31 30 30 30 30 29 28 28 27 26 26 25 25 25 25 25 25 25 25 25 24 24 24 24 24
25 26 27 27 28 29 30 32 33 34 35 36 36 36 36 36 36 36 36 36 36 36 36 36 35 35 34 34 34 34 34 34 34 35 36 37 37 37 38 38 38 38 39 39 39 39 39 39 39 39 39 38 37 36 34 33 31 31 31 30 30 30 30 30 29 29 28 28 27 26 25 25 25 26 26 26 26 26 25 25 25 25 25 25 25
Wind_Direction
245 244 245 248 250 251 253 255 254 253 255 256 259 264 268 270 270 269 267 264 263 265 267 268 270 270 270 270 272 274 276 279 284 287 289 287 283 276 272 271 274 277 281 283 285 286 287 289 293 297 299 300 301 302 303 304 306 307 307 306 308 309 311 313 315 316 317 317 318 319 321 322 322 322 322 321 320 320 321 323 324 324 324 323 322
244 242 244 247 249 251 252 251 249 249 252 253 256 262 266 268 269 269 267 265 265 266 267 268 269 269 269 270 272 275 277 280 284 287 289 287 283 278 275 273 275 278 281 283 285 286 288 291 295 297 298 299 301 302 303 304 306 307 307 308 309 310 312 314 316 317 317 318 318 319 321 322 322 322 321 320 320 320 323 325 325 324 323 323 322
243 243 245 247 248 249 249 248 246 247 249 251 254 259 263 266 267 267 266 266 266 267 267 268 268 268 269 270 273 276 278 281 284 287 289 288 284 280 277 276 276 278 280 282 284 287 290 293 295 296 298 299 300 302 304 306 307 307 308 308 309 310 312 315 316 317 318 318 318 320 322 322 322 322 321 320 320 321 323 325 325 324 323 323 322
242 244 246 247 247 247 246 246 245 246 248 250 252 256 261 264 264 264 265 266 267 267 267 267 267 267 268 271 274 277 279 281 284 287 289 287 284 280 277 276 275 276 279 282 285 289 291 293 295 297 299 300 301 303 306 307 307 308 308 308 308 310 313 315 317 318 318 317 317 319 321 322 322 322 321 319 319 320 323 325 326 325 323 323 323
243 245 246 247 246 245 245 246 246 246 247 247 248 253 258 261 262 262 263 265 266 267 266 266 267 267 269 272 274 277 279 281 283 286 288 287 283 278 274 274 274 277 280 284 287 290 292 294 296 299 301 301 302 305 307 308 308 308 308 308 309 311 313 315 316 317 317 317 317 320 322 322 323 322 320 318 317 319 321 324 326 325 323 323 324
243 245 246 245 244 244 244 245 246 246 245 244 246 251 256 259 260 260 261 263 266 266 266 266 267 268 269 271 274 276 278 279 281 284 286 285 281 276 273 274 276 279 282 286 289 292 294 297 300 301 302 302 305 307 309 310 310 310 309 309 309 310 312 314 316 317 317 317 318 320 322 322 322 320 319 317 316 318 321 323 325 326 325 324 323
242 245 246 243 241 242 243 244 244 244 242 241 244 249 254 257 258 257 259 263 265 266 265 265 266 267 268 270 272 275 277 277 279 282 284 283 279 276 275 276 278 281 284 288 292 295 297 300 302 303 303 305 308 310 312 312 312 311 309 309 310 310 310 314 316 317 316 317 318 321 322 322 320 319 318 317 316 317 319 322 324 325 325 324 322
241 244 244 241 239 241 242 243 243 241 239 239 242 248 253 256 256 255 258 262 265 265 265 265 267 267 268 269 271 273 275 275 277 280 282 281 279 277 278 278 280 283 287 291 295 297 300 301 303 302 302 304 308 311 312 312 312 311 309 308 309 309 310 313 316 316 316 317 319 321 321 320 319 318 318 317 317 317 318 321 323 324 324 324 322
240 241 239 236 236 239 241 243 242 240 238 238 242 247 252 254 253 253 257 261 263 265 265 266 268 268 268 269 270 272 273 274 276 278 280 280 278 278 278 279 283 286 289 293 296 298 300 301 303 302 300 302 307 309 311 313 313 311 309 308 307 307 309 313 315 315 315 317 319 320 321 319 318 318 318 317 317 317 318 320 321 323 324 324 323
237 235 233 232 235 238 241 242 240 238 237 238 242 246 250 252 251 252 255 259 261 264 265 267 270 269 267 267 269 271 272 274 276 278 279 279 278 277 279 281 285 288 291 294 296 298 299 301 303 302 300 303 307 310 313 314 313 312 310 307 306 306 310 312 314 314 315 317 319 320 320 319 318 318 317 317 317 317 318 319 320 322 323 323 323
231 230 230 232 235 238 240 241 239 236 236 238 241 245 249 250 250 251 254 257 260 263 265 268 269 267 266 266 268 270 271 274 276 279 280 280 279 279 280 283 285 288 292 294 295 297 298 301 303 304 305 307 309 311 313 314 313 312 310 308 306 307 310 312 313 314 316 318 319 320 320 319 319 318 317 317 317 317 317 318 319 321 322 323 323
227 228 229 231 234 237 239 240 237 235 237 239 242 245 248 249 249 250 253 256 259 262 266 268 267 266 265 264 265 266 268 272 275 279 280 281 281 281 282 284 286 290 293 294 296 297 298 301 302 304 306 308 310 311 312 314 313 310 310 310 309 310 311 312 313 315 316 318 319 320 320 320 320 319 318 318 317 317 317 318 318 319 320 322 323
227 228 229 231 234 235 237 238 237 236 238 241 243 245 248 249 249 250 252 255 258 262 266 267 266 266 265 263 262 262 264 269 273 277 279 281 281 281 283 286 289 292 292 293 296 298 299 301 302 304 306 307 309 311 313 314 311 307 309 313 313 313 312 312 314 316 317 319 319 320 321 321 321 321 320 319 318 317 318 318 318 319 319 321 322
227 228 228 229 232 233 234 236 236 236 239 242 244 246 248 247 246 247 251 254 258 263 266 266 266 267 264 262 262 261 262 265 271 275 279 280 281 282 285 287 290 292 292 293 296 298 299 300 301 304 305 307 309 311 313 314 310 305 310 314 314 313 312 312 314 316 317 319 320 320 321 322 322 322 321 320 319 318 318 318 319 319 319 320 322
227 227 226 227 229 231 232 234 236 237 238 241 244 246 246 245 244 246 250 254 258 262 265 265 266 268 265 262 263 263 262 263 268 275 278 279 281 283 285 288 290 291 292 294 296 297 298 300 301 304 305 306 309 310 312 313 306 301 307 312 312 312 312 313 315 316 317 319 320 320 321 322 322 322 322 321 320 319 319 319 319 319 320 320 321
229 228 227 227 229 230 231 233 236 236 237 240 243 245 245 243 243 244 248 252 257 261 264 265 265 266 265 262 262 263 263 262 267 273 276 278 281 283 285 287 289 290 291 293 294 295 298 301 302 304 305 306 308 309 310 310 304 299 304 308 310 311 311 312 314 316 318 319 320 320 321 321 322 322 321 321 321 320 320 320 320 320 320 320 322
234 233 231 230 229 229 230 233 235 236 237 239 242 244 243 242 241 244 247 251 256 259 262 264 265 265 264 262 259 259 260 261 264 269 273 277 280 283 285 287 288 290 291 292 294 296 299 301 303 304 305 306 308 309 309 308 305 303 304 307 308 309 309 311 314 316 318 319 320 320 321 321 321 322 321 321 321 321 321 321 320 320 321 321 322
240 238 236 234 231 230 231 233 235 235 236 238 240 242 241 240 240 242 246 250 254 258 260 263 266 266 263 259 256 254 255 257 260 266 272 276 280 283 285 286 288 291 292 294 296 298 300 301 303 304 304 306 308 308 307 307 306 306 306 307 307 307 308 311 313 316 318 319 319 320 320 321 322 322 322 322 322 322 321 321 320 320 321 322 324
244 241 238 236 233 231 232 233 235 235 235 236 238 240 240 239 238 241 245 249 253 258 262 265 265 264 261 258 255 254 255 255 258 266 272 275 280 285 287 288 290 292 294 296 297 299 300 302 303 304 305 306 307 307 307 307 307 307 307 306 305 305 308 311 313 316 318 318 319 319 320 321 322 322 322 322 322 322 321 320 320 321 321 323 325
245 239 239 238 234 233 234 234 234 235 235 236 238 240 241 240 239 241 245 250 254 260 265 267 265 264 264 263 259 255 253 253 256 267 274 276 280 285 288 289 291 293 295 297 298 300 301 302 303 305 306 307 307 307 306 307 306 306 306 305 304 305 308 311 313 316 317 318 318 319 320 321 322 322 323 322 321 322 321 320 320 321 322 324 328
244 238 240 238 234 235 237 236 234 234 235 237 238 242 244 243 241 242 246 252 256 261 266 269 268 267 266 265 261 255 251 253 259 268 273 276 281 286 288 289 291 293 296 298 299 300 302 303 304 306 307 308 308 307 307 306 305 305 305 305 305 306 309 311 313 316 317 317 318 319 320 321 321 322 323 322 321 322 321 321 321 322 324 327 330
244 241 240 236 233 235 237 236 234 233 235 237 239 243 245 244 243 242 245 251 257 261 266 268 268 268 266 264 261 256 250 254 263 267 270 277 283 287 289 289 291 294 296 298 299 300 302 304 305 306 308 308 308 308 307 306 304 304 305 305 305 307 309 311 313 315 316 317 317 319 320 320 321 322 322 321 321 321 321 321 323 325 327 329 331
247 244 240 234 231 233 235 235 234 233 234 236 239 242 243 243 243 243 244 249 255 259 264 267 269 270 267 263 260 255 250 256 272 275 275 280 285 287 288 290 292 295 297 298 299 301 303 304 305 307 307 308 308 307 306 304 304 305 306 305 306 308 309 311 313 315 316 316 317 318 319 320 320 321 320 320 320 320 320 322 324 326 328 329 331
247 243 239 234 231 233 235 235 234 234 235 237 239 241 241 241 243 245 247 250 253 256 263 268 270 269 264 261 260 254 249 258 278 281 278 281 285 286 288 290 293 296 298 299 300 302 304 305 306 306 307 306 307 307 305 305 306 307 307 306 307 309 310 312 313 314 315 315 317 318 319 319 319 319 319 319 319 319 319 320 322 324 327 329 331
239 237 237 235 233 234 236 237 237 236 235 237 238 240 240 240 242 246 249 251 253 257 262 266 267 264 260 259 260 254 250 260 277 280 279 282 285 286 288 291 295 298 299 299 301 302 304 305 306 306 306 306 306 306 306 306 308 308 308 307 308 310 311 312 313 313 313 315 317 318 318 318 318 319 319 319 319 317 317 317 318 321 325 329 332
233 233 237 238 238 240 242 243 243 240 238 237 238 239 240 240 241 245 249 251 253 255 258 261 263 261 258 258 258 254 255 267 278 280 280 283 284 286 289 293 296 298 298 299 300 301 303 304 304 304 305 305 306 306 306 307 308 308 308 309 309 310 311 312 312 312 312 314 316 317 317 317 318 319 319 319 318 316 315 316 316 319 323 328 331
233 236 238 239 241 246 251 252 249 245 243 243 242 242 242 243 243 245 248 251 253 254 257 260 261 257 256 258 259 260 266 272 276 278 279 282 284 287 291 295 297 298 299 299 299 300 302 302 303 303 303 304 305 306 307 307 308 308 308 309 309 309 310 310 310 310 311 314 316 316 316 318 319 318 318 317 316 315 314 315 315 318 323 327 329
237 238 239 239 240 245 253 258 256 251 248 247 245 244 245 246 246 246 247 250 254 256 257 258 256 253 253 258 263 268 271 272 273 276 278 282 285 289 292 296 298 299 299 299 299 300 301 301 302 302 302 303 304 306 306 306 306 307 308 308 307 307 308 308 308 309 311 314 316 316 317 318 318 318 318 317 315 315 315 315 316 320 324 326 325
239 241 243 244 245 247 252 257 257 253 249 247 246 245 244 244 244 244 245 248 251 255 257 256 252 251 254 261 266 268 268 269 270 273 277 281 285 288 292 296 298 299 299 299 298 299 299 299 299 299 301 302 304 305 305 304 304 306 307 307 306 306 307 307 307 309 312 315 315 316 317 318 317 317 318 317 316 317 318 318 319 321 324 325 322
244 245 246 247 249 250 252 255 256 253 247 244 243 242 239 237 237 239 242 244 248 253 257 256 254 256 263 269 270 267 267 268 270 273 276 281 284 288 291 295 296 297 297 297 297 298 297 296 296 298 300 303 304 304 303 302 303 305 306 306 305 305 305 306 307 310 313 315 315 316 316 315 316 318 319 318 318 320 320 320 320 322 324 323 319
241 242 243 245 246 248 250 253 255 253 246 240 237 235 231 228 230 234 237 242 246 252 257 258 258 261 266 267 266 266 267 269 271 274 278 283 286 289 292 294 294 293 294 295 297 296 295 294 295 297 300 302 303 303 301 301 302 304 305 305 305 304 304 305 307 310 312 314 315 315 314 314 316 319 320 318 318 320 320 320 321 322 322 320 316
237 239 243 246 247 250 253 254 254 254 250 242 234 230 226 223 225 230 233 238 243 249 254 257 259 260 261 262 263 265 268 270 273 276 281 285 288 291 292 291 289 288 291 294 295 294 294 294 294 296 299 302 302 300 300 300 301 303 304 305 304 304 304 305 307 310 312 313 314 313 312 314 317 319 318 316 317 318 319 320 321 322 322 318 313
239 241 244 245 248 253 257 256 254 253 249 240 232 226 222 220 223 228 232 236 240 244 248 251 253 255 258 260 263 266 269 272 276 279 284 287 289 292 294 290 285 284 287 290 292 293 293 294 295 297 299 300 299 298 299 299 301 303 304 304 303 303 303 305 307 310 311 313 313 311 311 313 316 316 314 314 315 316 318 319 321 322 322 318 312
244 246 246 246 249 252 255 257 257 252 243 234 227 221 218 219 223 229 233 237 240 242 245 248 251 254 258 261 264 268 271 274 278 282 286 287 288 291 294 292 288 286 287 288 290 291 292 294 296 297 297 297 297 297 299 300 302 303 303 302 302 302 303 305 307 309 311 312 310 308 310 312 314 313 312 312 313 315 316 318 319 322 322 318 313
250 252 252 253 254 254 255 257 256 248 238 230 222 216 215 220 225 231 236 239 241 243 247 250 253 256 259 262 265 268 272 275 280 284 286 287 287 288 290 291 291 291 290 288 288 289 290 293 295 295 295 295 295 296 298 300 301 301 300 300 301 303 304 305 307 308 310 309 307 307 309 311 311 311 311 310 310 312 314 316 318 321 322 319 314
255 257 260 261 258 254 253 252 246 236 228 222 216 212 215 221 227 233 238 239 241 244 248 251 254 258 260 263 266 269 272 276 280 283 285 286 286 287 288 289 291 293 291 287 284 285 289 292 292 292 293 293 294 296 298 299 300 299 298 299 301 303 305 305 306 308 309 308 306 306 307 308 308 308 309 307 307 310 312 314 317 320 322 320 315
252 254 259 260 256 251 246 239 230 224 220 217 214 215 219 225 230 236 239 240 242 246 249 252 255 258 259 262 265 268 271 274 278 280 282 283 284 286 287 290 293 293 288 283 282 285 288 290 290 290 291 292 294 296 296 297 298 297 297 298 300 302 304 305 306 307 306 305 303 303 304 304 305 306 307 306 306 309 312 313 315 318 320 320 317
250 251 253 253 251 246 238 227 222 221 221 220 219 221 225 229 233 236 239 242 245 249 251 253 255 257 259 261 264 267 271 274 277 279 281 283 284 285 288 291 292 288 281 280 283 287 289 289 289 290 291 291 292 293 294 295 296 296 296 298 300 302 304 305 306 305 303 301 300 300 301 301 302 304 306 306 307 309 311 312 313 317 320 320 317
251 247 246 245 241 236 229 224 222 222 223 223 223 224 227 231 235 239 242 245 247 249 250 252 254 256 260 263 267 271 274 277 279 281 283 284 284 286 288 289 286 281 279 281 285 287 288 289 290 290 290 290 291 292 293 294 296 296 298 300 302 304 305 306 305 303 300 298 298 298 299 299 300 302 304 305 307 309 310 310 312 316 319 320 318
234 232 233 233 229 224 222 222 222 221 222 224 226 226 229 233 237 240 243 245 247 248 250 253 255 258 262 265 269 272 275 278 280 282 283 284 284 286 287 287 284 282 282 283 285 287 289 290 291 290 289 290 291 292 294 295 296 298 300 301 302 303 305 305 303 301 298 297 297 297 296 297 299 300 301 303 304 306 306 307 310 314 317 320 318
212 216 219 219 218 218 219 220 219 219 222 224 225 228 231 234 237 240 243 245 248 250 253 256 259 261 264 266 269 271 275 278 280 281 281 282 283 284 284 284 283 283 283 284 285 288 290 290 289 288 288 289 291 292 293 295 297 299 300 300 301 302 302 302 301 299 298 297 296 296 296 297 298 298 300 301 302 302 303 304 307 309 313 317 316
207 208 208 209 213 218 222 221 220 221 224 227 229 232 234 236 239 242 245 248 251 254 256 259 261 263 266 268 270 273 276 278 278 279 280 282 283 282 282 282 282 283 283 283 284 287 288 288 287 287 288 289 290 292 294 296 298 300 300 300 300 301 301 299 298 299 299 298 296 296 295 296 296 298 299 300 301 302 303 304 304 305 308 312 313
220 215 214 217 221 225 225 225 225 227 230 232 234 236 238 239 242 244 247 250 253 255 257 259 261 263 266 269 272 274 275 276 277 280 282 282 282 281 281 281 281 282 282 282 283 284 285 285 285 286 288 289 291 292 295 297 299 300 301 301 301 301 300 298 298 299 300 298 297 295 295 296 297 298 299 299 300 303 305 305 303 302 304 307 308
228 229 228 227 226 225 225 226 228 230 232 233 235 237 239 241 243 246 248 250 252 254 256 259 261 264 268 270 272 273 274 277 279 281 281 281 280 280 280 280 281 282 282 282 282 283 284 285 286 287 289 290 291 293 295 297 299 300 300 300 300 298 298 298 299 299 299 298 297 296 296 296 297 297 297 298 301 303 306 306 304 302 302 303 304
230 232 232 230 227 226 227 229 231 233 234 235 237 238 240 242 244 246 247 249 251 253 257 260 264 268 270 270 270 271 274 277 278 278 278 279 279 280 280 281 281 282 282 282 283 284 286 288 289 290 290 291 292 294 296 297 298 299 300 299 298 297 297 298 299 299 298 298 297 297 296 296 296 296 296 298 301 303 305 305 304 302 302 302 301
229 226 227 229 228 228 229 231 234 236 238 239 240 241 243 244 246 248 249 250 253 256 259 262 265 267 268 268 270 272 274 275 276 277 278 279 280 280 281 281 281 281 281 282 284 286 289 290 291 291 292 292 293 295 295 296 297 298 298 297 296 297 297 298 298 298 298 297 296 296 295 295 295 295 297 299 301 303 303 304 304 303 303 302 300
232 230 230 231 230 230 231 233 235 237 239 241 242 244 245 247 249 251 252 254 256 258 259 261 263 264 265 268 270 272 274 275 276 278 279 279 279 279 280 280 279 279 279 280 282 285 287 289 290 291 291 292 293 293 293 294 295 295 294 294 294 295 296 297 298 298 298 297 296 295 294 294 295 296 298 300 302 302 303 304 304 305 305 304 300
240 240 240 240 239 238 239 240 241 241 243 244 246 247 249 251 253 255 257 258 259 260 260 261 262 263 265 268 270 272 274 276 277 278 278 278 278 278 278 278 277 278 279 280 282 284 286 288 289 289 290 290 290 291 291 292 292 292 291 291 293 294 295 297 298 299 299 298 297 295 294 295 296 298 300 301 301 301 302 303 304 305 305 304 300
246 246 246 247 248 248 249 249 250 251 251 252 253 254 255 256 258 259 260 261 261 261 261 261 262 263 265 268 270 272 274 275 275 275 275 275 276 277 277 277 278 279 281 283 284 285 286 287 287 288 288 288 288 289 290 290 289 288 287 288 290 292 295 297 298 299 299 298 296 295 295 296 297 298 299 300 301 301 302 304 305 305 305 304 300
250 249 249 249 249 250 251 252 253 254 254 255 255 255 255 256 257 258 258 259 259 260 260 261 263 265 266 268 269 270 271 271 272 272 272 273 274 276 277 278 279 280 281 282 283 284 285 286 287 287 287 287 287 288 288 287 286 284 284 286 289 292 294 296 297 297 298 297 296 296 295 295 295 296 297 299 300 302 302 303 304 305 304 303 301
253 253 252 251 249 249 249 250 251 251 251 252 252 252 253 254 255 255 256 257 258 259 261 262 263 265 266 266 266 267 268 269 270 270 271 272 274 275 277 279 280 281 282 282 283 284 285 286 286 286 286 286 286 285 285 283 282 281 283 286 289 291 292 294 295 295 296 296 296 295 294 293 293 294 296 298 300 301 302 302 303 302 302 301 300
Height
5779 5781 5782 5782 5783 5784 5785 5786 5786 5787 5788 5789 5790 5791 5791 5791 5791 5790 5790 5790 5790 5790 5790 5791 5791 5791 5791 5791 5791 5791 5790 5790 5789 5789 5788 5787 5787 5787 5787 5787 5787 5786 5786 5785 5785 5784 5783 5782 5781 5780 5779 5778 5776 5774 5773 5771 5770 5768 5766 5763 5761 5759 5756 5754 5751 5748 5746 5743 5740 5737 5734 5731 5727 5724 5721 5717 5714 5711 5708 5705 5702 5698 5695 5693 5690
5775 5776 5777 5778 5779 5780 5780 5781 5782 5784 5785 5786 5787 5788 5788 5788 5787 5787 5787 5786 5787 5787 5788 5788 5788 5788 5788 5788 5788 5788 5788 5787 5787 5786 5785 5785 5784 5784 5784 5784 5784 5783 5783 5782 5782 5781 5780 5779 5778 5777 5776 5774 5773 5771 5770 5768 5767 5765 5763 5760 5758 5755 5753 5750 5748 5745 5742 5739 5736 5734 5731 5728 5724 5721 5717 5714 5711 5708 5705 5702 5698 5695 5692 5689 5686
5771 5772 5773 5774 5775 5775 5776 5777 5779 5780 5781 5783 5784 5785 5785 5784 5784 5784 5784 5783 5784 5784 5785 5785 5785 5785 5786 5786 5786 5785 5785 5785 5784 5784 5783 5782 5782 5781 5781 5781 5781 5780 5780 5780 5779 5778 5777 5776 5775 5774 5773 5771 5770 5768 5767 5765 5764 5762 5760 5757 5755 5752 5749 5747 5744 5741 5738 5736 5733 5730 5727 5724 5721 5717 5713 5710 5708 5705 5702 5699 5695 5691 5688 5686 5683
5766 5767 5768 5769 5770 5771 5773 5774 5775 5777 5778 5780 5781 5782 5781 5781 5781 5781 5781 5781 5781 5782 5782 5783 5783 5783 5783 5783 5783 5783 5783 5783 5782 5781 5780 5780 5779 5779 5778 5778 5778 5778 5777 5777 5776 5775 5774 5773 5772 5771 5770 5768 5766 5765 5764 5762 5760 5758 5756 5754 5751 5749 5746 5743 5740 5738 5735 5733 5730 5727 5724 5720 5717 5713 5710 5707 5704 5702 5700 5697 5693 5688 5684 5682 5679
5762 5763 5764 5765 5766 5768 5769 5770 5772 5773 5775 5776 5777 5778 5778 5778 5778 5778 5778 5778 5778 5779 5780 5780 5780 5780 5780 5780 5780 5780 5780 5780 5779 5779 5778 5777 5777 5776 5776 5776 5775 5775 5775 5774 5773 5773 5772 5770 5769 5768 5767 5765 5763 5762 5761 5759 5757 5755 5752 5750 5748 5745 5743 5740 5737 5734 5732 5729 5727 5724 5720 5717 5713 5710 5707 5704 5701 5699 5696 5693 5690 5686 5680 5676 5674
5758 5759 5760 5761 5763 5764 5766 5767 5768 5770 5771 5772 5773 5773 5774 5774 5774 5775 5775 5775 5776 5776 5777 5777 5777 5777 5777 5777 5778 5778 5778 5777 5777 5776 5776 5775 5774 5774 5774 5773 5773 5773 5772 5772 5771 5770 5769 5767 5766 5765 5763 5762 5760 5759 5757 5755 5753 5751 5749 5746 5744 5741 5739 5736 5734 5731 5729 5726 5723 5720 5717 5714 5711 5708 5705 5701 5698 5695 5692 5689 5686 5684 5679 5673 5670
5754 5754 5756 5757 5759 5761 5762 5763 5764 5766 5767 5768 5769 5769 5770 5771 5771 5772 5772 5772 5773 5774 5774 5774 5774 5775 5775 5775 5775 5775 5775 5775 5774 5774 5773 5773 5772 5772 5771 5771 5770 5770 5769 5769 5768 5767 5766 5764 5763 5762 5760 5758 5757 5756 5754 5752 5750 5747 5745 5743 5740 5738 5735 5733 5730 5728 5726 5723 5720 5717 5714 5711 5708 5705 5702 5699 5696 5693 5689 5686 5682 5679 5676 5673 5668
5749 5750 5752 5754 5756 5757 5758 5759 5760 5761 5763 5764 5765 5765 5767 5767 5768 5768 5768 5769 5770 5771 5771 5772 5772 5772 5772 5772 5772 5772 5772 5772 5771 5771 5771 5770 5770 5769 5769 5768 5768 5767 5767 5766 5765 5764 5762 5761 5760 5758 5757 5755 5754 5752 5751 5749 5746 5744 5741 5739 5737 5734 5732 5730 5727 5725 5722 5720 5717 5714 5711 5708 5705 5702 5699 5696 5693 5691 5687 5684 5680 5677 5674 5671 5667
5744 5746 5748 5750 5752 5753 5754 5754 5756 5757 5759 5760 5761 5762 5763 5764 5764 5764 5765 5766 5767 5767 5768 5769 5769 5769 5769 5769 5769 5769 5769 5769 5769 5768 5768 5767 5767 5767 5766 5766 5765 5765 5764 5763 5762 5761 5759 5758 5756 5755 5754 5752 5751 5749 5747 5745 5742 5740 5738 5735 5733 5731 5729 5727 5724 5722 5719 5716 5714 5711 5708 5705 5702 5699 5696 5693 5690 5687 5684 5681 5678 5675 5671 5668 5665
5740 5742 5745 5747 5748 5749 5749 5751 5752 5754 5755 5757 5757 5758 5759 5760 5760 5761 5762 5762 5763 5765 5765 5766 5766 5766 5766 5766 5766 5766 5766 5766 5766 5765 5765 5765 5764 5764 5763 5763 5762 5761 5761 5760 5759 5758 5756 5755 5753 5752 5751 5749 5747 5745 5743 5741 5738 5736 5734 5732 5729 5727 5725 5723 5721 5718 5716 5713 5710 5707 5704 5701 5698 5696 5693 5690 5687 5684 5681 5678 5675 5672 5669 5665 5662
5737 5739 5741 5743 5743 5744 5745 5747 5749 5750 5752 5753 5754 5755 5755 5756 5756 5757 5758 5759 5760 5762 5763 5763 5763 5762 5762 5763 5763 5763 5762 5763 5763 5763 5762 5762 5761 5761 5760 5760 5759 5758 5757 5756 5756 5755 5753 5752 5750 5749 5747 5746 5744 5742 5740 5738 5735 5732 5730 5728 5726 5724 5722 5720 5718 5715 5713 5710 5707 5704 5701 5698 5695 5692 5689 5687 5684 5681 5678 5675 5672 5669 5666 5663 5660
5733 5735 5737 5738 5739 5740 5742 5743 5745 5747 5748 5749 5750 5751 5751 5752 5753 5754 5755 5756 5757 5759 5760 5760 5759 5758 5759 5760 5760 5759 5759 5759 5760 5760 5759 5759 5758 5758 5757 5756 5756 5755 5754 5753 5752 5751 5750 5749 5748 5746 5744 5743 5741 5739 5737 5734 5731 5728 5726 5724 5723 5721 5718 5716 5714 5712 5709 5707 5704 5701 5698 5695 5692 5689 5686 5683 5681 5678 5675 5672 5668 5665 5663 5660 5657
5728 5730 5732 5733 5734 5736 5738 5740 5742 5743 5744 5745 5746 5747 5747 5748 5749 5751 5752 5753 5754 5756 5756 5756 5755 5755 5756 5756 5756 5756 5756 5756 5756 5756 5756 5756 5755 5755 5754 5753 5753 5752 5751 5750 5748 5747 5747 5745 5744 5743 5741 5739 5737 5735 5733 5730 5727 5725 5723 5721 5719 5717 5715 5713 5711 5709 5706 5703 5701 5698 5695 5692 5689 5686 5683 5680 5677 5674 5671 5668 5665 5662 5659 5656 5653
5723 5725 5727 5728 5730 5732 5734 5736 5738 5740 5741 5741 5742 5743 5744 5745 5746 5747 5748 5749 5751 5752 5752 5752 5752 5752 5752 5752 5752 5752 5753 5753 5753 5753 5753 5753 5752 5752 5751 5750 5749 5749 5747 5746 5745 5744 5743 5742 5740 5739 5737 5735 5733 5731 5729 5726 5723 5721 5719 5718 5716 5714 5711 5709 5707 5705 5703 5700 5697 5694 5691 5689 5686 5683 5680 5677 5674 5671 5668 5665 5662 5658 5655 5652 5650
5718 5720 5722 5724 5726 5728 5730 5732 5734 5735 5736 5737 5738 5739 5740 5741 5743 5743 5744 5746 5747 5748 5748 5748 5749 5749 5748 5748 5748 5748 5749 5749 5750 5750 5750 5749 5749 5749 5748 5747 5746 5745 5743 5742 5742 5741 5740 5738 5737 5735 5733 5731 5729 5727 5725 5723 5720 5718 5716 5714 5712 5710 5708 5706 5704 5702 5699 5697 5694 5691 5688 5686 5683 5680 5677 5674 5672 5668 5665 5662 5659 5656 5652 5649 5646
5714 5716 5718 5720 5722 5724 5726 5728 5729 5731 5732 5733 5734 5735 5736 5738 5739 5739 5740 5742 5744 5744 5744 5745 5745 5745 5744 5745 5745 5745 5745 5746 5746 5747 5746 5746 5745 5745 5744 5744 5743 5742 5740 5739 5738 5737 5736 5734 5733 5731 5729 5727 5725 5723 5721 5719 5717 5715 5713 5711 5709 5707 5704 5703 5701 5699 5696 5693 5691 5688 5685 5683 5680 5677 5674 5671 5668 5665 5662 5659 5656 5653 5650 5646 5643
5710 5712 5714 5716 5718 5720 5721 5723 5724 5726 5728 5729 5730 5731 5732 5734 5734 5735 5736 5738 5740 5740 5741 5741 5741 5740 5740 5740 5740 5741 5741 5742 5743 5743 5743 5742 5742 5741 5741 5740 5739 5738 5737 5736 5735 5733 5732 5730 5728 5727 5725 5723 5721 5719 5717 5715 5713 5711 5710 5708 5706 5703 5701 5699 5697 5695 5693 5690 5687 5685 5682 5679 5677 5674 5671 5668 5665 5661 5658 5655 5652 5649 5647 5644 5640
5706 5709 5711 5712 5714 5715 5716 5717 5719 5721 5723 5725 5726 5727 5728 5729 5729 5730 5732 5735 5736 5736 5736 5737 5737 5736 5736 5736 5736 5736 5738 5739 5739 5739 5739 5738 5738 5737 5737 5737 5736 5735 5734 5732 5731 5729 5728 5726 5724 5722 5720 5719 5717 5715 5713 5711 5710 5708 5706 5704 5702 5700 5698 5696 5694 5692 5689 5687 5684 5682 5679 5676 5673 5670 5667 5664 5661 5658 5655 5652 5649 5646 5643 5640 5638
5702 5705 5706 5707 5708 5710 5711 5712 5714 5716 5718 5720 5721 5722 5723 5723 5724 5726 5728 5730 5731 5732 5732 5733 5733 5732 5731 5731 5732 5733 5734 5735 5736 5736 5735 5735 5734 5734 5734 5733 5732 5731 5730 5729 5727 5726 5724 5722 5720 5718 5716 5714 5713 5711 5709 5707 5706 5704 5703 5701 5699 5697 5695 5693 5691 5688 5686 5683 5681 5678 5676 5673 5670 5667 5664 5661 5658 5655 5652 5649 5646 5643 5640 5637 5634
5697 5699 5700 5701 5703 5704 5706 5707 5708 5711 5714 5715 5716 5717 5717 5718 5720 5722 5724 5726 5727 5728 5728 5728 5728 5729 5728 5728 5729 5730 5731 5731 5732 5732 5732 5732 5732 5731 5731 5729 5728 5727 5726 5725 5723 5721 5720 5718 5716 5714 5712 5710 5708 5707 5705 5703 5702 5700 5699 5697 5695 5693 5692 5690 5688 5685 5683 5680 5677 5675 5672 5670 5667 5664 5661 5657 5654 5651 5649 5646 5643 5640 5637 5633 5630
5691 5693 5694 5695 5697 5699 5701 5702 5704 5706 5709 5710 5711 5712 5712 5714 5716 5719 5721 5722 5723 5724 5724 5724 5724 5725 5724 5724 5725 5725 5726 5727 5728 5728 5728 5728 5728 5727 5727 5726 5725 5723 5722 5720 5719 5717 5715 5713 5711 5709 5707 5706 5704 5702 5701 5700 5698 5696 5695 5694 5692 5690 5688 5686 5684 5682 5679 5677 5674 5671 5669 5666 5663 5660 5657 5654 5651 5648 5645 5642 5640 5637 5634 5630 5627
5686 5689 5690 5691 5692 5694 5695 5697 5699 5701 5703 5705 5706 5707 5708 5710 5712 5714 5717 5718 5719 5719 5720 5719 5718 5718 5719 5720 5721 5721 5722 5723 5724 5724 5723 5723 5723 5723 5723 5722 5721 5720 5718 5716 5714 5713 5711 5709 5707 5705 5703 5702 5700 5699 5697 5696 5694 5693 5691 5690 5688 5686 5685 5683 5681 5679 5676 5673 5671 5668 5665 5663 5660 5657 5654 5651 5648 5645 5642 5639 5636 5633 5630 5627 5624
5683 5685 5686 5685 5686 5688 5691 5693 5694 5696 5698 5700 5702 5703 5704 5706 5708 5710 5712 5714 5716 5716 5716 5715 5713 5713 5714 5716 5716 5716 5717 5719 5719 5719 5719 5719 5719 5719 5719 5719 5718 5716 5714 5712 5710 5708 5707 5705 5703 5701 5699 5698 5696 5695 5694 5692 5691 5690 5688 5687 5685 5683 5682 5680 5678 5675 5673 5670 5667 5665 5662 5659 5656 5654 5651 5648 5645 5642 5639 5636 5633 5630 5627 5624 5621
5678 5680 5681 5680 5680 5683 5686 5688 5689 5691 5694 5696 5698 5698 5700 5702 5704 5705 5707 5710 5712 5713 5713 5712 5710 5709 5709 5711 5712 5712 5713 5714 5715 5714 5715 5715 5716 5716 5716 5715 5714 5712 5709 5707 5706 5704 5702 5700 5698 5697 5695 5694 5693 5692 5690 5688 5687 5686 5685 5683 5681 5680 5678 5677 5674 5672 5669 5667 5664 5662 5659 5656 5653 5650 5647 5644 5642 5639 5636 5633 5630 5627 5624 5621 5618
5672 5674 5675 5676 5676 5678 5681 5683 5685 5688 5690 5692 5693 5694 5696 5699 5700 5701 5702 5705 5707 5709 5709 5708 5708 5705 5704 5706 5707 5707 5709 5710 5711 5711 5712 5713 5713 5713 5712 5711 5709 5707 5705 5703 5702 5700 5698 5696 5694 5693 5691 5690 5689 5688 5686 5685 5684 5683 5682 5680 5678 5676 5675 5673 5671 5668 5666 5663 5661 5659 5656 5653 5650 5647 5644 5641 5638 5636 5633 5631 5628 5625 5622 5619 5615
5666 5668 5670 5672 5674 5675 5677 5679 5682 5684 5686 5688 5689 5691 5693 5695 5696 5698 5699 5700 5703 5705 5704 5704 5704 5702 5701 5701 5703 5704 5706 5707 5708 5708 5709 5710 5710 5709 5708 5707 5705 5703 5701 5699 5698 5696 5694 5692 5691 5689 5688 5686 5685 5684 5682 5681 5680 5679 5678 5676 5675 5673 5671 5669 5667 5665 5662 5660 5658 5655 5652 5649 5646 5644 5641 5638 5635 5633 5631 5628 5625 5622 5620 5617 5613
5662 5665 5668 5669 5670 5672 5674 5676 5679 5681 5683 5685 5687 5688 5689 5691 5693 5695 5696 5696 5698 5699 5699 5699 5700 5699 5698 5698 5700 5702 5704 5705 5705 5705 5705 5706 5706 5705 5704 5702 5701 5699 5698 5696 5694 5693 5691 5689 5687 5685 5684 5682 5681 5679 5678 5677 5676 5675 5674 5673 5671 5669 5668 5666 5664 5661 5659 5657 5655 5652 5649 5646 5643 5640 5638 5635 5633 5630 5628 5626 5623 5620 5618 5615 5612
5660 5663 5664 5665 5666 5668 5670 5672 5674 5677 5679 5681 5682 5684 5685 5688 5690 5692 5692 5692 5693 5693 5694 5695 5696 5696 5695 5696 5698 5700 5700 5701 5701 5701 5701 5702 5701 5700 5699 5698 5696 5695 5694 5692 5690 5689 5687 5685 5683 5681 5680 5678 5677 5675 5674 5673 5673 5672 5670 5669 5667 5666 5664 5662 5660 5658 5656 5654 5652 5649 5645 5643 5640 5637 5635 5632 5630 5628 5626 5623 5621 5618 5615 5613 5610
5657 5659 5660 5661 5662 5664 5665 5666 5668 5670 5672 5673 5675 5677 5680 5683 5686 5686 5687 5687 5688 5688 5689 5691 5691 5691 5692 5694 5695 5696 5697 5697 5698 5698 5698 5697 5696 5695 5694 5694 5692 5691 5689 5688 5686 5685 5683 5681 5679 5678 5676 5674 5673 5672 5671 5670 5669 5668 5667 5665 5664 5662 5660 5659 5657 5655 5653 5651 5648 5645 5642 5639 5637 5634 5632 5629 5627 5625 5623 5621 5618 5615 5613 5610 5607
5653 5654 5655 5656 5658 5659 5660 5660 5661 5662 5663 5664 5665 5668 5671 5676 5679 5681 5682 5682 5683 5684 5686 5686 5687 5688 5688 5689 5691 5692 5692 5693 5693 5693 5693 5692 5691 5690 5690 5689 5688 5686 5685 5683 5682 5680 5679 5677 5675 5674 5673 5671 5669 5668 5667 5666 5665 5664 5663 5662 5660 5658 5657 5655 5653 5651 5649 5647 5644 5641 5639 5636 5634 5631 5629 5626 5624 5622 5620 5618 5615 5613 5610 5608 5605
5647 5648 5649 5650 5651 5653 5654 5654 5654 5654 5655 5657 5658 5660 5664 5668 5671 5674 5676 5677 5678 5680 5682 5682 5683 5684 5685 5685 5686 5687 5688 5688 5688 5688 5688 5687 5686 5685 5684 5684 5682 5681 5680 5679 5678 5676 5674 5673 5671 5670 5669 5667 5666 5664 5664 5663 5661 5660 5659 5658 5657 5655 5653 5651 5650 5648 5645 5643 5641 5638 5636 5633 5631 5628 5626 5624 5622 5619 5617 5615 5612 5610 5607 5605 5602
5642 5643 5645 5647 5647 5648 5649 5649 5649 5648 5649 5652 5654 5656 5659 5663 5665 5668 5670 5672 5674 5676 5677 5679 5680 5681 5681 5681 5682 5682 5683 5683 5683 5683 5683 5682 5682 5681 5680 5679 5678 5676 5675 5674 5673 5671 5670 5669 5667 5666 5665 5663 5662 5661 5660 5659 5658 5656 5655 5654 5653 5651 5649 5648 5646 5644 5642 5639 5637 5635 5632 5630 5627 5625 5623 5621 5619 5617 5614 5612 5609 5607 5605 5602 5599
5637 5638 5641 5642 5642 5643 5644 5645 5644 5644 5645 5647 5649 5652 5656 5660 5662 5663 5664 5667 5669 5672 5673 5675 5676 5676 5677 5677 5677 5678 5678 5679 5678 5678 5678 5678 5677 5676 5675 5674 5673 5672 5671 5670 5668 5667 5666 5665 5663 5662 5660 5659 5658 5657 5656 5655 5654 5653 5652 5650 5649 5647 5646 5644 5642 5640 5638 5636 5633 5631 5628 5626 5624 5622 5620 5618 5616 5614 5612 5609 5607 5604 5602 5599 5597
5632 5633 5634 5636 5637 5637 5638 5640 5640 5641 5641 5643 5646 5649 5653 5656 5658 5660 5660 5662 5665 5667 5668 5669 5671 5671 5672 5673 5673 5674 5674 5674 5674 5674 5674 5673 5673 5672 5670 5669 5668 5667 5666 5665 5664 5663 5662 5661 5659 5657 5656 5655 5654 5653 5652 5651 5650 5649 5647 5646 5645 5643 5642 5640 5639 5636 5634 5632 5630 5627 5625 5623 5621 5619 5617 5615 5614 5612 5609 5606 5604 5602 5599 5597 5594
5627 5627 5629 5631 5632 5633 5634 5635 5636 5637 5638 5640 5644 5647 5649 5652 5654 5656 5657 5658 5660 5661 5662 5664 5666 5667 5667 5668 5669 5669 5669 5669 5669 5669 5669 5668 5668 5667 5665 5664 5663 5662 5661 5660 5659 5658 5657 5656 5655 5653 5652 5651 5650 5649 5648 5646 5645 5644 5643 5642 5641 5639 5638 5636 5634 5632 5630 5628 5626 5623 5622 5620 5618 5616 5614 5612 5611 5609 5606 5604 5601 5599 5597 5594 5592
5621 5622 5623 5625 5626 5627 5628 5630 5630 5632 5634 5637 5640 5642 5645 5647 5650 5651 5652 5653 5655 5656 5658 5660 5661 5662 5663 5664 5664 5664 5664 5665 5665 5665 5664 5664 5663 5662 5660 5659 5658 5657 5656 5655 5654 5653 5653 5652 5650 5649 5648 5647 5646 5645 5643 5642 5641 5640 5638 5637 5636 5635 5633 5632 5630 5628 5626 5624 5621 5620 5618 5616 5615 5613 5611 5609 5607 5605 5603 5601 5599 5597 5594 5592 5589
5616 5617 5617 5617 5618 5620 5623 5625 5626 5627 5629 5632 5635 5637 5640 5643 5645 5646 5647 5649 5651 5652 5654 5655 5656 5657 5658 5658 5659 5659 5659 5660 5660 5661 5660 5659 5658 5657 5655 5654 5653 5652 5651 5650 5650 5649 5648 5647 5646 5645 5644 5642 5641 5640 5639 5638 5637 5636 5634 5633 5632 5631 5629 5627 5625 5623 5621 5619 5618 5616 5614 5613 5611 5609 5608 5606 5604 5602 5600 5598 5596 5594 5592 5589 5587
5610 5611 5610 5611 5613 5616 5619 5621 5622 5623 5625 5628 5631 5633 5635 5638 5640 5642 5644 5645 5647 5649 5650 5651 5652 5652 5652 5653 5653 5654 5655 5655 5655 5656 5655 5654 5653 5652 5650 5649 5649 5647 5646 5646 5645 5645 5644 5643 5642 5640 5639 5638 5637 5636 5635 5634 5633 5632 5630 5629 5628 5627 5625 5623 5621 5619 5617 5615 5613 5612 5610 5609 5607 5606 5604 5603 5601 5599 5597 5595 5593 5591 5589 5587 5585
5606 5605 5604 5605 5608 5612 5614 5617 5619 5621 5624 5626 5627 5629 5631 5633 5636 5638 5640 5642 5643 5645 5646 5646 5647 5647 5647 5647 5648 5648 5649 5650 5650 5650 5649 5648 5648 5647 5646 5645 5644 5643 5642 5641 5641 5640 5640 5639 5638 5636 5635 5634 5633 5632 5631 5630 5628 5627 5626 5625 5623 5622 5620 5618 5616 5614 5612 5611 5609 5608 5606 5605 5603 5602 5601 5599 5597 5596 5594 5593 5591 5589 5587 5584 5582
5601 5600 5600 5601 5604 5607 5611 5615 5617 5619 5622 5623 5624 5626 5628 5630 5632 5634 5636 5637 5639 5640 5641 5642 5643 5643 5643 5643 5643 5643 5644 5644 5645 5644 5643 5643 5642 5642 5641 5640 5639 5638 5637 5637 5636 5636 5635 5634 5633 5632 5630 5629 5628 5628 5627 5625 5624 5623 5621 5620 5619 5617 5616 5614 5611 5609 5608 5606 5605 5604 5602 5601 5600 5599 5597 5595 5594 5593 5591 5590 5588 5586 5584 5582 5580
5596 5595 5597 5599 5602 5605 5609 5612 5614 5616 5618 5620 5621 5623 5624 5626 5628 5630 5632 5633 5635 5636 5637 5638 5638 5638 5638 5639 5639 5639 5639 5639 5639 5639 5638 5637 5637 5637 5636 5635 5634 5633 5632 5632 5631 5631 5630 5629 5628 5627 5626 5625 5624 5623 5622 5621 5620 5618 5617 5616 5614 5613 5611 5609 5607 5605 5604 5602 5601 5600 5598 5597 5596 5595 5593 5592 5591 5589 5588 5586 5584 5583 5581 5580 5578
5592 5592 5594 5597 5600 5604 5606 5609 5611 5613 5615 5617 5619 5620 5622 5623 5625 5627 5628 5630 5631 5631 5632 5633 5633 5633 5633 5634 5634 5634 5635 5634 5634 5633 5633 5632 5632 5632 5631 5630 5629 5628 5627 5627 5626 5626 5625 5624 5623 5622 5621 5620 5619 5618 5617 5616 5615 5614 5613 5611 5609 5608 5606 5605 5603 5601 5600 5598 5597 5596 5594 5593 5592 5591 5590 5588 5587 5586 5584 5583 5581 5579 5578 5577 5575
5590 5591 5594 5597 5600 5602 5604 5606 5609 5611 5613 5614 5616 5617 5619 5620 5622 5623 5624 5625 5626 5626 5627 5627 5628 5628 5629 5629 5629 5630 5629 5629 5628 5628 5628 5627 5627 5627 5626 5624 5623 5623 5622 5622 5621 5621 5620 5619 5619 5618 5616 5616 5615 5614 5613 5612 5611 5609 5608 5606 5604 5603 5601 5600 5598 5597 5596 5594 5593 5592 5591 5589 5588 5587 5586 5585 5583 5582 5580 5579 5577 5576 5575 5574 5572
5590 5591 5594 5596 5597 5599 5601 5603 5605 5607 5609 5610 5612 5613 5615 5616 5617 5618 5620 5620 5621 5622 5622 5622 5623 5623 5624 5624 5624 5624 5624 5623 5623 5622 5622 5622 5621 5621 5620 5619 5618 5618 5617 5616 5616 5615 5615 5615 5614 5613 5612 5611 5610 5609 5608 5607 5606 5604 5603 5601 5600 5598 5597 5595 5594 5593 5592 5590 5589 5588 5587 5586 5585 5583 5582 5581 5580 5578 5577 5575 5574 5573 5572 5571 5569
5589 5590 5591 5592 5594 5595 5597 5599 5601 5603 5605 5606 5608 5609 5610 5611 5613 5614 5615 5616 5616 5617 5617 5617 5618 5618 5618 5618 5619 5618 5618 5617 5617 5617 5617 5616 5616 5615 5614 5614 5613 5612 5612 5611 5611 5610 5610 5610 5609 5608 5607 5606 5605 5604 5603 5602 5601 5599 5598 5597 5595 5594 5592 5591 5590 5589 5587 5586 5585 5584 5583 5582 5581 5580 5578 5577 5576 5575 5573 5572 5571 5569 5568 5567 5566
5587 5588 5588 5589 5590 5593 5594 5596 5598 5599 5601 5602 5603 5605 5606 5607 5608 5609 5610 5611 5611 5611 5612 5612 5612 5612 5612 5612 5612 5613 5612 5612 5611 5611 5611 5611 5610 5609 5609 5608 5608 5608 5607 5606 5606 5606 5605 5605 5604 5603 5602 5601 5600 5599 5598 5597 5596 5594 5593 5592 5591 5589 5588 5587 5586 5584 5583 5582 5581 5580 5579 5578 5577 5576 5574 5573 5572 5571 5570 5569 5567 5566 5565 5564 5563
5584 5585 5585 5586 5588 5589 5591 5593 5594 5596 5597 5598 5599 5600 5601 5603 5603 5604 5605 5605 5605 5605 5606 5606 5606 5606 5606 5606 5606 5606 5606 5606 5606 5606 5605 5605 5604 5604 5604 5603 5603 5603 5603 5602 5602 5601 5601 5600 5599 5598 5597 5596 5595 5594 5593 5592 5591 5590 5589 5587 5586 5585 5584 5583 5581 5580 5579 5578 5577 5576 5575 5574 5573 5572 5571 5570 5569 5568 5567 5565 5564 5563 5562 5561 5560
5580 5581 5582 5583 5584 5586 5587 5588 5590 5591 5592 5593 5594 5595 5596 5597 5597 5598 5598 5599 5599 5599 5599 5600 5600 5600 5600 5600 5600 5600 5600 5600 5600 5600 5600 5599 5599 5599 5599 5598 5598 5598 5598 5598 5597 5596 5596 5595 5594 5593 5592 5591 5590 5588 5587 5587 5586 5585 5584 5583 5582 5581 5579 5578 5577 5576 5575 5574 5573 5572 5571 5570 5569 5568 5567 5566 5565 5564 5563 5562 5561 5560 5559 5558 5557
5575 5576 5578 5579 5580 5581 5582 5583 5585 5586 5587 5588 5589 5589 5590 5590 5591 5591 5592 5592 5592 5592 5593 5593 5594 5594 5594 5595 5595 5595 5595 5595 5595 5595 5595 5595 5594 5594 5594 5594 5594 5593 5593 5592 5592 5591 5590 5589 5588 5587 5586 5585 5584 5583 5582 5581 5581 5580 5579 5578 5577 5576 5575 5574 5573 5572 5571 5570 5569 5568 5567 5567 5566 5565 5564 5563 5562 5561 5560 5559 5558 5557 5556 5555 5554
5571 5572 5573 5574 5575 5576 5577 5578 5579 5580 5581 5582 5583 5583 5584 5584 5585 5585 5586 5586 5586 5587 5587 5588 5588 5589 5589 5589 5590 5590 5590 5590 5590 5590 5590 5590 5589 5589 5589 5589 5589 5588 5588 5587 5587 5586 5585 5584 5583 5582 5581 5579 5578 5577 5577 5576 5575 5575 5574 5574 5573 5572 5571 5570 5569 5568 5567 5566 5565 5565 5564 5563 5562 5561 5560 5559 5559 5558 5557 5555 5554 5553 5553 5552 5551
5566 5567 5569 5570 5571 5572 5573 5573 5574 5575 5576 5576 5577 5578 5578 5579 5579 5580 5580 5581 5581 5582 5582 5582 5583 5583 5583 5584 5584 5584 5584 5584 5584 5584 5584 5584 5584 5584 5584 5584 5583 5583 5582 5582 5581 5580 5580 5579 5577 5576 5575 5574 5573 5572 5571 5571 5570 5570 5569 5569 5568 5567 5566 5565 5564 5563 5563 5562 5561 5561 5560 5559 5558 5557 5557 5556 5555 5554 5553 5552 5551 5550 5550 5549 5548